Location: *
(50.2903°S, 172.5375°W)
Time: 21:05:32
(UTC+00:00)

IRS-1C - Pass Details

Date: 17 November 2019
Orbit: 816 x 817 km, 98.8° (Epoch: 14 December)

Event Time Altitude Azimuth Distance (km) Brightness Sun altitude
Exits shadow 12:26:26 19° 33° (NNE) 1,855 5.6 -19.0°
Maximum altitude 12:30:15 66° 110° (ESE) 906 4.5 -18.8°
Drops below altitude 10° 12:35:38 10° 190° (S) 2,450 7.5 -18.5°
Sets 12:38:00 0° 193° (SSW) 3,390 8.3 -18.3°
